Wind_Speed
7 8 8 8 9 12 13 14 14 17 17 16 15 12 14 14 12 17 16 16 16 16 15 14 14 13 12 13 12 12 12 13 15 15 14 21 21 20 20 20 18 21 24
6 6 8 9 10 11 12 15 17 15 15 15 16 11 13 13 12 16 17 18 18 16 14 14 14 13 13 12 11 11 11 11 12 7 4 2 6 22 24 19 21 18 20
5 5 5 6 6 10 11 13 13 13 13 16 17 19 13 14 13 17 17 18 16 16 15 13 13 13 13 12 12 11 12 12 12 14 8 3 4 4 7 14 17 21 22
6 4 4 6 7 8 10 10 10 11 11 13 12 14 15 18 18 18 18 19 16 16 15 14 13 13 13 13 12 11 12 13 13 13 18 19 6 2 2 5 7 10 16
3 4 6 6 7 9 12 10 8 11 13 13 14 14 14 16 18 19 21 20 18 16 15 14 14 14 13 15 15 14 13 15 15 15 10 13 15 15 6 4 5 8 15
2 4 4 5 8 9 10 12 12 13 16 17 17 17 18 19 21 21 21 20 20 18 16 16 15 15 14 14 15 15 16 15 16 17 17 14 5 7 8 6 11 10 7
1 3 8 9 9 11 13 15 16 17 17 20 20 20 20 20 20 21 20 22 21 20 19 19 17 16 16 17 16 17 17 18 17 17 17 18 19 19 17 16 11 7 9
1 5 6 7 9 12 14 17 19 21 20 20 22 21 20 19 21 20 22 22 21 21 21 20 20 19 18 17 17 17 18 18 20 20 21 22 19 21 19 14 10 4 6
3 3 6 8 12 15 17 18 20 22 21 21 21 22 21 21 22 22 22 21 21 21 22 21 21 20 20 19 17 17 18 18 20 22 23 23 20 22 20 21 19 13 6
3 4 7 12 15 16 17 18 19 21 22 21 21 23 24 22 22 22 23 23 23 22 22 21 20 20 20 19 19 18 18 18 18 20 22 25 21 21 23 21 22 21 18
4 6 10 14 16 17 19 20 20 22 23 22 23 23 24 23 23 23 22 22 23 24 24 23 22 20 20 19 19 19 19 20 21 20 22 23 25 24 24 23 23 21 21
5 8 12 15 18 19 20 22 22 23 23 24 24 24 24 24 23 23 23 22 23 23 23 24 24 23 21 20 20 20 19 20 22 22 22 25 23 28 27 26 24 21 22
7 10 13 16 18 20 22 23 23 25 25 26 25 25 25 24 24 24 24 23 23 23 23 23 24 23 23 22 22 21 21 21 23 24 23 23 26 27 28 28 25 23 22
8 10 14 18 20 21 22 24 25 25 26 26 26 25 25 25 25 25 25 24 24 24 24 24 24 24 24 24 24 23 22 23 23 25 25 25 26 28 26 26 28 25 22
9 12 14 19 21 22 23 25 25 26 26 27 26 25 25 26 26 25 25 26 26 26 26 26 25 24 24 23 22 22 22 24 25 26 27 27 28 33 33 28 27 26 23
12 14 18 20 21 22 25 26 26 27 27 27 26 26 25 26 26 26 27 27 26 25 25 25 25 25 25 24 24 25 25 26 28 28 28 27 29 31 33 37 33 31 28
14 15 19 20 21 23 25 27 27 28 28 27 26 26 26 27 27 27 27 27 26 26 26 26 25 25 25 24 24 25 28 29 29 28 28 28 27 28 31 32 39 38 36
14 17 20 22 22 23 24 27 26 28 27 27 26 25 26 28 28 28 27 27 26 27 26 26 25 25 26 25 25 27 29 30 30 30 30 29 29 30 27 24 28 31 37
18 19 21 22 22 22 23 25 27 27 28 27 27 27 27 28 28 28 28 28 26 27 27 27 27 26 28 26 27 27 28 29 32 30 29 30 30 33 31 31 27 24 23
18 20 23 23 21 21 23 26 26 27 27 29 30 29 27 28 28 28 29 28 27 28 28 28 27 27 30 28 28 27 26 21 23 28 28 31 33 31 29 32 33 26 24
19 19 21 21 21 22 22 24 26 27 29 30 30 30 29 28 28 28 27 27 27 28 28 28 27 26 27 28 25 24 25 23 20 20 22 28 28 28 34 34 34 35 30
20 20 20 23 23 23 22 24 26 28 30 30 30 30 29 28 27 26 28 27 27 26 26 25 24 22 22 21 22 21 21 21 20 19 19 18 20 26 30 30 35 39 38
20 19 20 23 24 22 22 25 27 29 30 30 30 31 30 28 26 26 27 27 25 23 23 21 20 22 20 22 21 19 19 19 16 15 14 23 26 25 27 34 36 39 37
20 20 22 23 25 25 24 25 27 27 29 30 31 31 29 29 27 26 25 24 23 23 23 21 21 21 19 20 18 16 10 6 8 22 26 27 28 33 33 27 28 32 30
20 22 21 23 25 26 26 26 26 27 29 31 30 29 28 28 28 26 25 25 28 26 28 25 21 18 16 18 15 11 5 10 17 28 27 24 25 25 26 26 27 29 30
21 21 23 24 26 27 26 26 26 27 29 31 28 28 28 28 26 26 30 27 24 28 29 25 21 19 16 16 10 6 7 17 24 21 18 17 18 20 22 24 25 26 29
Wind_Direction
98 87 73 66 67 61 52 40 31 24 14 6 5 2 357 356 356 1 360 359 353 351 353 344 333 330 320 312 301 289 282 275 271 271 269 271 270 261 256 250 250 247 250
114 86 60 47 55 53 48 34 25 16 14 1 359 354 342 343 340 347 347 347 347 343 341 342 338 325 318 314 311 298 283 273 259 248 221 254 241 246 243 235 237 241 247
99 74 53 53 54 55 38 28 8 356 358 360 353 352 348 338 334 340 338 335 331 331 332 331 328 330 315 305 304 297 292 280 267 236 236 195 233 207 208 231 237 242 242
118 91 47 37 34 35 36 14 349 343 345 349 350 345 336 331 327 324 321 324 322 321 320 321 320 318 315 304 299 295 284 285 269 251 244 247 239 285 212 227 231 245 245
130 73 61 47 39 12 351 346 347 338 334 334 335 333 324 318 316 316 317 318 317 315 313 313 312 311 311 308 306 298 289 278 272 254 236 237 238 246 243 261 249 257 249
84 72 63 20 349 355 346 340 337 335 330 327 324 323 318 317 314 313 314 313 312 310 307 308 306 303 300 302 299 294 285 283 280 271 242 227 206 205 219 246 261 258 253
119 5 357 358 350 353 342 333 328 327 326 322 319 319 315 313 310 312 311 311 309 307 304 304 302 297 293 296 295 289 289 281 275 274 269 246 233 240 240 239 251 252 246
38 354 359 4 353 339 333 329 327 324 324 322 318 316 315 311 308 306 306 303 300 298 298 298 297 295 292 291 292 286 286 283 274 273 268 268 251 239 229 233 248 243 259
19 24 355 349 341 334 331 328 325 321 322 321 317 315 314 310 306 304 302 299 297 297 296 295 296 293 290 287 290 284 283 282 278 273 266 265 259 249 236 229 227 232 244
357 345 341 338 335 330 326 325 323 319 319 319 316 314 311 309 306 302 301 300 299 298 297 296 294 291 286 284 287 282 282 282 279 272 260 263 258 253 244 231 221 228 238
333 335 333 331 329 328 327 325 323 321 320 319 316 313 311 309 306 302 300 300 300 299 298 298 295 290 285 281 282 278 280 281 279 275 268 264 259 255 253 239 231 224 226
337 328 326 327 327 327 327 324 323 319 319 316 314 312 310 309 307 304 303 301 298 296 295 294 293 290 285 282 279 275 272 278 276 275 273 269 267 248 244 239 236 225 219
329 327 329 327 326 326 324 322 322 319 318 315 313 312 310 310 308 306 304 303 301 297 294 291 289 287 286 283 278 272 267 272 275 274 275 270 269 263 244 240 232 227 219
327 327 327 326 326 325 324 321 320 319 318 315 313 312 311 310 309 307 305 304 303 299 296 292 287 284 283 281 279 275 268 270 272 271 271 270 263 269 253 242 227 222 215
327 331 327 326 324 323 321 319 319 319 318 315 313 311 310 309 308 307 306 305 304 301 298 295 290 285 281 279 277 273 267 272 278 272 269 268 266 261 263 231 229 213 205
326 327 324 325 324 324 320 320 320 319 317 314 313 312 312 310 308 308 306 303 302 301 298 293 288 285 280 277 275 272 269 272 272 268 269 268 265 269 270 236 233 218 206
328 325 323 323 322 320 319 317 319 317 315 315 315 314 312 310 309 308 306 302 300 300 297 293 289 284 280 276 273 273 270 271 269 264 265 266 262 264 256 248 232 232 227
324 321 320 320 320 318 318 317 319 317 316 314 313 313 311 308 308 307 304 302 299 296 295 293 290 286 281 278 276 276 274 273 268 265 261 259 260 259 246 235 227 217 217
319 316 316 316 317 317 318 317 318 319 318 316 315 313 312 308 307 306 305 302 300 296 293 292 290 286 284 284 282 279 278 273 266 260 256 253 255 258 249 224 214 194 188
321 319 318 318 319 322 322 319 319 320 317 318 314 312 310 307 305 305 303 302 299 294 291 290 289 287 285 286 283 283 279 282 274 257 253 252 254 252 235 194 180 145 153
318 319 318 317 319 322 323 317 319 318 318 316 313 312 311 308 306 306 305 303 300 295 291 290 290 289 285 284 284 282 277 280 284 265 254 259 247 222 203 201 177 165 155
323 325 322 321 324 325 326 319 318 319 318 316 314 312 312 311 310 309 307 305 299 293 291 294 292 294 291 290 287 282 279 277 274 268 259 245 223 194 174 165 159 154 154
322 323 322 320 323 325 326 319 319 320 319 317 316 315 315 313 313 311 308 305 302 296 294 295 293 298 300 302 300 292 284 278 261 252 189 153 141 131 135 136 135 146 140
323 323 324 322 322 326 325 321 320 321 318 316 316 316 315 315 315 312 307 303 301 298 295 297 294 293 291 301 306 304 291 254 208 139 121 122 120 121 119 121 125 133 135
321 322 322 320 318 322 323 323 322 322 319 316 315 314 314 313 311 310 305 302 299 298 297 298 295 289 289 296 304 291 244 160 137 125 121 117 116 113 112 110 115 120 125
322 321 322 321 320 321 321 322 324 323 318 315 316 315 314 312 311 311 311 310 305 310 314 315 306 298 289 295 287 252 190 149 138 119 114 114 117 117 119 118 114 116 121
Height
861 861 861 859 857 855 855 855 854 852 853 851 846 841 838 833 829 825 822 820 817 814 811 808 806 803 800 798 795 794 792 791 790 790 788 788 788 790 791 791 793 793 793
861 863 865 865 863 861 858 857 855 854 853 853 850 844 840 836 831 827 822 819 816 814 811 807 805 803 799 796 794 793 791 788 788 788 786 787 787 786 787 788 789 789 789
861 865 864 864 864 861 859 854 855 854 851 848 848 844 840 837 832 828 823 820 816 813 809 806 803 801 799 796 793 790 788 786 784 784 784 783 781 782 781 783 783 783 785
862 863 864 864 863 862 860 858 858 855 852 850 844 842 841 836 831 828 822 818 815 812 808 804 802 799 798 794 791 789 786 784 783 781 780 780 781 780 778 780 778 779 779
861 861 861 861 862 861 858 856 855 854 852 848 845 839 836 834 829 826 821 816 812 809 806 802 799 796 793 791 787 785 784 782 780 778 777 777 778 778 779 777 775 775 775
863 863 862 862 862 861 860 857 853 850 851 848 843 838 834 829 825 822 817 813 808 804 802 800 797 793 790 788 785 784 781 778 775 773 772 772 773 774 775 776 774 774 772
865 865 865 863 863 861 861 858 854 847 845 844 841 835 831 826 822 818 814 810 805 801 798 796 793 790 787 785 781 779 776 774 772 771 769 768 768 769 769 768 769 769 771
864 866 865 864 862 860 857 856 853 847 841 838 836 833 828 823 818 814 811 807 803 799 795 792 788 784 782 779 777 774 772 770 768 766 765 764 763 764 764 765 767 767 768
863 866 867 865 862 859 856 853 849 845 840 835 831 828 824 820 815 810 806 803 799 794 791 788 783 779 776 774 772 769 767 766 763 761 760 760 759 759 759 758 762 763 762
863 865 865 864 861 858 854 850 847 843 837 832 828 824 820 815 811 806 801 797 793 789 786 782 779 775 772 769 766 763 761 760 758 756 755 755 755 754 754 753 755 757 759
861 862 863 863 860 856 852 848 843 838 834 829 823 819 815 811 807 802 797 792 788 783 779 775 773 770 767 764 761 758 756 754 753 752 750 749 749 749 749 749 749 750 754
861 861 861 859 858 853 849 845 840 836 830 826 819 814 810 806 801 797 793 788 784 779 775 771 766 763 760 757 756 752 752 750 748 747 745 743 743 742 744 744 744 744 747
859 859 857 855 853 849 846 842 836 833 826 821 815 809 805 801 796 792 788 783 779 774 770 766 762 757 754 751 749 747 745 744 743 741 738 737 737 736 736 737 737 739 741
858 858 856 854 850 847 842 838 833 829 823 817 811 804 800 795 791 787 783 778 773 769 764 760 755 751 748 744 741 739 737 738 736 734 730 730 730 729 728 729 730 732 734
857 855 853 851 848 844 839 834 829 824 819 812 806 800 795 791 786 781 776 772 767 762 758 753 748 744 741 738 735 732 731 729 727 725 724 722 721 721 721 720 721 725 727
857 853 851 847 845 840 836 830 825 820 815 808 801 796 790 785 781 776 771 766 761 756 751 747 742 737 734 731 729 727 724 722 720 717 716 714 713 712 710 712 715 717 720
855 852 850 846 843 839 834 827 821 817 811 804 796 792 787 781 776 770 765 760 755 750 745 740 735 730 726 724 722 720 717 714 711 709 708 707 705 705 704 703 706 709 712
853 851 847 843 839 836 830 825 818 813 808 800 793 787 783 777 771 765 759 754 749 744 738 732 727 722 718 715 713 711 708 704 701 700 699 698 697 696 696 695 698 700 704
855 852 846 842 836 832 827 822 814 808 803 797 790 783 778 773 766 759 753 747 741 736 731 725 720 715 710 707 704 701 698 693 689 688 688 687 686 685 687 690 691 695 699
853 848 844 839 833 827 823 817 811 805 799 793 787 780 773 767 760 753 746 740 735 729 724 718 713 707 701 697 694 692 688 683 679 677 676 675 676 676 678 679 683 689 695
850 845 840 835 830 825 819 813 807 801 796 789 783 775 768 761 754 747 740 734 728 722 717 711 705 699 694 689 686 683 680 677 672 668 666 665 664 668 670 674 677 682 694
846 842 837 830 826 821 816 809 803 797 791 784 778 770 763 755 748 741 734 728 723 716 710 704 697 692 687 682 678 675 673 670 667 662 660 657 658 662 667 671 674 681 688
845 841 835 828 822 818 813 806 800 794 787 780 772 765 757 750 743 736 729 723 717 711 704 698 691 685 681 676 672 669 665 662 660 658 656 657 660 664 670 673 675 682 689
842 838 832 826 819 814 808 803 797 791 784 776 768 760 753 745 738 731 725 719 712 705 698 692 686 680 675 672 667 664 661 658 658 658 658 660 664 668 673 680 683 687 694
840 835 830 824 818 812 805 799 793 788 780 772 763 756 749 741 733 726 720 714 707 701 693 686 680 675 671 668 665 663 660 659 658 658 661 665 668 673 678 683 689 693 699
837 832 827 821 815 810 802 795 790 785 777 768 759 752 745 737 730 722 712 707 702 695 688 681 676 671 667 665 663 662 661 661 661 663 666 670 674 677 682 687 694 700 705